Flag for Thailand Weather past 2 weeks in Udon Thani, Thailand

Now
79 °F

Broken clouds.


Feels Like: 82 °F
Forecast: 76 / 87 °F
Wind: 5 mph from East

Location: Udon Thani Airport

Current Time: Apr 22, 2015 at 11:31:16 AM

Latest Report: Apr 22, 2015 at 10:00 AM


Visibility: 4 mi

Pressure: 29.98 "Hg

Humidity: 84%

Dew point: 73 °F

Location of Udon ThaniLocation

Historic Weather in Udon Thani — Graph

°F

Udon Thani temperature yesterday

Maximum temperature yesterday: 104 °F (at 1:00 PM)
Minimum temperature yesterday: 82 °F (at 6:00 AM)
Average temperature yesterday: 92 °F

Past Weeks' High & Low Weather Summary

 TemperatureHumidityPressure
High106 °F (Apr 19, 2:00 PM)94% (Apr 12, 6:00 AM)30.09 "Hg (Apr 12, 6:00 AM)
Low63 °F (Apr 15, 6:00 AM)20% (Apr 14, 3:00 PM)29.62 "Hg (Apr 20, 5:00 PM)
Average87 °F50%29.85 "Hg
* Reported Apr 7 9:00 AM — Apr 22 9:00 AM, Udon Thani, Weather by CustomWeather, © 2015

Note: Actual official high and low records may vary slightly from our data, if they occured in-between our weather recording intervals... More about our weather records

Advertising

Udon Thani weather history for previous 24 hours

 ConditionsComfort  
Time TempWeatherWind HumidityBarometerVisibility
9:00 AM
Wed, Apr 22
75 °FPartly sunny.5 mph89%29.98 "Hg4 mi
8:00 AM73 °FScattered clouds.5 mph94%29.95 "Hg4 mi
7:00 AM73 °FStrong thunderstorms. Cloudy.9 mph94%29.92 "Hg1 mi
6:00 AM79 °FFog.8 mph74%29.86 "Hg3 mi
10:00 PM
Tue, Apr 21
84 °FThunderstorms. Partly cloudy.8 mph58%29.74 "Hg4 mi
9:00 PM88 °FThunderstorms. Partly cloudy.5 mph46%29.74 "Hg4 mi
8:00 PM86 °FThunderstorms. Haze.10 mph55%29.71 "Hg3 mi
7:00 PM82 °FThunderstorms. Fog.8 mph70%29.68 "Hg3 mi
6:00 PM84 °FThunderstorms. Broken clouds.13 mph55%29.68 "Hg3 mi
5:00 PM93 °FBroken clouds.9 mph44%29.62 "Hg3 mi
4:00 PM104 °FScattered clouds.3 mph29%29.62 "Hg4 mi
3:00 PM104 °FScattered clouds.7 mph29%29.65 "Hg4 mi
2:00 PM104 °FScattered clouds.5 mph29%29.68 "Hg4 mi
1:00 PM104 °FClear.6 mph31%29.71 "Hg4 mi
12:00 PM102 °FClear.6 mph33%29.74 "Hg4 mi
11:00 AM93 °FHaze.5 mph44%29.77 "Hg3 mi
Weather by CustomWeather, © 2015

See weather overviewHow to use our weather pages